Time,TemperatureF,DewpointF,PressureIn,WindDirection,WindDirectionDegrees,WindSpeedMPH,WindSpeedGustMPH,Humidity,HourlyPrecipIn,Conditions,Clouds,dailyrainin,SoftwareType,DateUTC
2013-03-25 00:03:00,30.0,29.0,29.73,North,355,9.0,18.0,97,0.00,,,0.03,,2013-03-25 05:03:00,
2013-03-25 00:12:00,30.0,29.0,29.73,North,355,9.0,18.0,97,0.00,,,0.03,,2013-03-25 05:12:00,
2013-03-25 00:22:00,30.0,29.0,29.73,NNE,19,10.0,17.0,97,0.00,,,0.03,,2013-03-25 05:22:00,
2013-03-25 00:32:00,30.0,29.0,29.73,NNW,348,9.0,17.0,97,0.00,,,0.03,,2013-03-25 05:32:00,
2013-03-25 00:42:00,30.0,29.0,29.73,NNW,348,9.0,17.0,97,0.00,,,0.03,,2013-03-25 05:42:00,
2013-03-25 00:52:00,29.0,28.0,29.74,NNW,346,9.0,18.0,97,0.00,,,0.03,,2013-03-25 05:52:00,
2013-03-25 01:02:00,29.0,28.0,29.74,North,360,10.0,17.0,97,0.00,,,0.03,,2013-03-25 06:02:00,
2013-03-25 01:12:00,29.0,28.0,29.74,North,360,10.0,17.0,97,0.00,,,0.03,,2013-03-25 06:12:00,
2013-03-25 01:22:00,29.0,28.0,29.74,North,360,10.0,17.0,97,0.00,,,0.03,,2013-03-25 06:22:00,
2013-03-25 01:32:00,29.0,28.0,29.75,NNW,344,10.0,17.0,97,0.00,,,0.03,,2013-03-25 06:32:00,
2013-03-25 01:42:00,29.0,28.0,29.75,NNW,344,10.0,17.0,97,0.00,,,0.03,,2013-03-25 06:42:00,
2013-03-25 01:52:00,29.0,28.0,29.75,NNE,13,10.0,17.0,97,0.00,,,0.03,,2013-03-25 06:52:00,
2013-03-25 02:02:00,28.0,27.0,29.76,North,10,9.0,17.0,97,0.00,,,0.03,,2013-03-25 07:02:00,
2013-03-25 02:12:00,28.0,27.0,29.76,North,10,9.0,17.0,97,0.00,,,0.03,,2013-03-25 07:12:00,
2013-03-25 02:22:00,28.0,27.0,29.76,North,11,9.0,16.0,97,0.00,,,0.03,,2013-03-25 07:22:00,
2013-03-25 02:32:00,28.0,27.0,29.76,North,355,8.0,17.0,97,0.00,,,0.03,,2013-03-25 07:32:00,
2013-03-25 02:42:00,28.0,27.0,29.76,North,355,8.0,17.0,97,0.00,,,0.03,,2013-03-25 07:42:00,
2013-03-25 02:52:00,28.0,27.0,29.76,NNW,348,9.0,18.0,97,0.00,,,0.03,,2013-03-25 07:52:00,
2013-03-25 03:02:00,28.0,27.0,29.76,NNW,343,7.0,16.0,97,0.00,,,0.03,,2013-03-25 08:02:00,
2013-03-25 03:12:00,28.0,27.0,29.76,NNW,343,7.0,16.0,97,0.00,,,0.03,,2013-03-25 08:12:00,
2013-03-25 03:22:00,28.0,27.0,29.76,NW,316,8.0,16.0,97,0.00,,,0.03,,2013-03-25 08:22:00,
2013-03-25 03:32:00,28.0,27.0,29.76,NW,325,8.0,17.0,97,0.00,,,0.03,,2013-03-25 08:32:00,
2013-03-25 03:42:00,28.0,27.0,29.76,NW,325,8.0,17.0,97,0.00,,,0.03,,2013-03-25 08:42:00,
2013-03-25 03:52:00,28.0,27.0,29.76,NNW,333,8.0,13.0,97,0.00,,,0.03,,2013-03-25 08:52:00,
2013-03-25 04:02:00,28.0,27.0,29.76,NNW,327,9.0,16.0,97,0.00,,,0.03,,2013-03-25 09:02:00,
2013-03-25 04:12:00,28.0,27.0,29.76,NNW,327,9.0,16.0,97,0.00,,,0.03,,2013-03-25 09:12:00,
2013-03-25 04:22:00,28.0,27.0,29.76,NNW,331,8.0,13.0,97,0.00,,,0.03,,2013-03-25 09:22:00,
2013-03-25 04:33:00,28.0,27.0,29.76,North,350,7.0,13.0,97,0.00,,,0.03,,2013-03-25 09:33:00,
2013-03-25 04:43:00,28.0,27.0,29.76,North,350,7.0,13.0,97,0.00,,,0.03,,2013-03-25 09:43:00,
2013-03-25 04:52:00,27.0,26.0,29.76,NNW,341,8.0,15.0,96,0.00,,,0.03,,2013-03-25 09:52:00,
2013-03-25 05:03:00,27.0,26.0,29.77,NNW,346,7.0,14.0,96,0.00,,,0.03,,2013-03-25 10:03:00,
2013-03-25 05:12:00,27.0,26.0,29.77,NNW,346,7.0,14.0,96,0.00,,,0.03,,2013-03-25 10:12:00,
2013-03-25 05:22:00,27.0,26.0,29.78,NNW,332,8.0,14.0,96,0.00,,,0.03,,2013-03-25 10:22:00,
2013-03-25 05:32:00,27.0,26.0,29.78,NW,306,8.0,15.0,96,0.00,,,0.03,,2013-03-25 10:32:00,
2013-03-25 05:42:00,27.0,26.0,29.78,NW,306,8.0,15.0,96,0.00,,,0.03,,2013-03-25 10:42:00,
2013-03-25 05:53:00,27.0,26.0,29.79,NNW,329,8.0,12.0,96,0.00,,,0.03,,2013-03-25 10:53:00,
2013-03-25 06:03:00,27.0,26.0,29.79,NNW,334,8.0,14.0,96,0.00,,,0.03,,2013-03-25 11:03:00,
2013-03-25 06:12:00,27.0,26.0,29.79,NNW,334,8.0,14.0,96,0.00,,,0.03,,2013-03-25 11:12:00,
2013-03-25 06:23:00,27.0,26.0,29.79,NNW,334,8.0,13.0,96,0.00,,,0.03,,2013-03-25 11:23:00,
2013-03-25 06:32:00,27.0,26.0,29.79,NW,320,8.0,12.0,96,0.00,,,0.03,,2013-03-25 11:32:00,
2013-03-25 06:42:00,27.0,26.0,29.79,NW,320,8.0,12.0,96,0.00,,,0.03,,2013-03-25 11:42:00,
2013-03-25 06:52:00,27.0,26.0,29.80,NNW,342,7.0,15.0,96,0.00,,,0.03,,2013-03-25 11:52:00,
2013-03-25 07:02:00,27.0,26.0,29.80,NW,321,9.0,13.0,96,0.00,,,0.03,,2013-03-25 12:02:00,
2013-03-25 07:13:00,27.0,26.0,29.80,NW,321,9.0,13.0,96,0.00,,,0.03,,2013-03-25 12:13:00,
2013-03-25 07:23:00,27.0,26.0,29.81,NNW,333,8.0,13.0,95,0.00,,,0.03,,2013-03-25 12:23:00,
2013-03-25 07:32:00,27.0,26.0,29.82,NW,315,6.0,16.0,95,0.00,,,0.03,,2013-03-25 12:32:00,
2013-03-25 07:42:00,27.0,26.0,29.82,NW,315,6.0,16.0,95,0.00,,,0.03,,2013-03-25 12:42:00,
2013-03-25 07:53:00,27.0,26.0,29.82,NW,321,8.0,13.0,95,0.00,,,0.03,,2013-03-25 12:53:00,
2013-03-25 08:02:00,27.0,26.0,29.83,NW,313,8.0,12.0,95,0.00,,,0.03,,2013-03-25 13:02:00,
2013-03-25 08:13:00,27.0,26.0,29.83,NW,313,8.0,12.0,95,0.00,,,0.03,,2013-03-25 13:13:00,
2013-03-25 08:22:00,27.0,26.0,29.83,NNW,344,8.0,12.0,95,0.00,,,0.03,,2013-03-25 13:22:00,
2013-03-25 08:32:00,27.0,26.0,29.84,NNW,342,8.0,14.0,94,0.00,,,0.03,,2013-03-25 13:32:00,
2013-03-25 08:42:00,27.0,26.0,29.84,NNW,342,8.0,14.0,94,0.00,,,0.03,,2013-03-25 13:42:00,
2013-03-25 08:52:00,27.0,26.0,29.85,North,5,7.0,13.0,94,0.00,,,0.03,,2013-03-25 13:52:00,
2013-03-25 09:03:00,27.0,26.0,29.86,NW,314,7.0,16.0,94,0.00,,,0.03,,2013-03-25 14:03:00,
2013-03-25 09:12:00,27.0,26.0,29.86,NW,314,7.0,16.0,94,0.00,,,0.03,,2013-03-25 14:12:00,
2013-03-25 09:22:00,27.0,25.0,29.87,NW,311,8.0,15.0,93,0.00,,,0.03,,2013-03-25 14:22:00,
2013-03-25 09:32:00,28.0,26.0,29.87,NW,321,8.0,13.0,93,0.00,,,0.03,,2013-03-25 14:32:00,
2013-03-25 09:42:00,28.0,26.0,29.87,NW,321,8.0,13.0,93,0.00,,,0.03,,2013-03-25 14:42:00,
2013-03-25 09:52:00,27.0,26.0,29.88,NNW,347,7.0,15.0,94,0.00,,,0.03,,2013-03-25 14:52:00,
2013-03-25 10:02:00,27.0,26.0,29.88,NW,313,8.0,14.0,94,0.00,,,0.03,,2013-03-25 15:02:00,
2013-03-25 10:12:00,27.0,26.0,29.88,NW,313,8.0,14.0,94,0.00,,,0.03,,2013-03-25 15:12:00,
2013-03-25 10:23:00,28.0,27.0,29.89,WNW,300,9.0,15.0,94,0.00,,,0.03,,2013-03-25 15:23:00,
2013-03-25 10:33:00,28.0,27.0,29.90,NW,307,9.0,17.0,94,0.00,,,0.03,,2013-03-25 15:33:00,
2013-03-25 10:42:00,28.0,27.0,29.90,NW,307,9.0,17.0,94,0.00,,,0.03,,2013-03-25 15:42:00,
2013-03-25 10:53:00,28.0,26.0,29.90,NW,312,10.0,19.0,93,0.00,,,0.03,,2013-03-25 15:53:00,
2013-03-25 11:03:00,28.0,26.0,29.91,NW,326,10.0,19.0,93,0.00,,,0.03,,2013-03-25 16:03:00,
2013-03-25 11:12:00,28.0,26.0,29.91,NW,326,10.0,19.0,93,0.00,,,0.03,,2013-03-25 16:12:00,
2013-03-25 11:23:00,28.0,26.0,29.91,NW,326,10.0,19.0,93,0.00,,,0.03,,2013-03-25 16:23:00,
2013-03-25 11:33:00,29.0,27.0,29.92,NW,312,11.0,17.0,93,0.00,,,0.03,,2013-03-25 16:33:00,
2013-03-25 11:43:00,29.0,27.0,29.92,NW,312,11.0,17.0,93,0.00,,,0.03,,2013-03-25 16:43:00,
2013-03-25 11:53:00,29.0,27.0,29.92,NW,315,9.0,16.0,92,0.01,,,0.04,,2013-03-25 16:53:00,
2013-03-25 12:02:00,29.0,27.0,29.92,NNW,328,9.0,17.0,92,0.01,,,0.04,,2013-03-25 17:02:00,
2013-03-25 12:12:00,29.0,27.0,29.92,NNW,328,9.0,17.0,92,0.01,,,0.04,,2013-03-25 17:12:00,
2013-03-25 12:23:00,29.0,27.0,29.93,North,350,10.0,19.0,92,0.01,,,0.04,,2013-03-25 17:23:00,
2013-03-25 12:33:00,30.0,28.0,29.93,NNW,339,10.0,19.0,92,0.01,,,0.03,,2013-03-25 17:33:00,
2013-03-25 12:42:00,30.0,28.0,29.93,NNW,339,10.0,19.0,92,0.01,,,0.03,,2013-03-25 17:42:00,
2013-03-25 12:52:00,30.0,28.0,29.93,NW,306,8.0,20.0,92,0.00,,,0.03,,2013-03-25 17:52:00,
2013-03-25 13:03:00,31.0,29.0,29.93,NW,309,10.0,17.0,91,0.00,,,0.03,,2013-03-25 18:03:00,
2013-03-25 13:12:00,31.0,29.0,29.93,NW,309,10.0,17.0,91,0.00,,,0.03,,2013-03-25 18:12:00,
2013-03-25 13:22:00,32.0,30.0,29.94,NNW,342,10.0,21.0,91,0.00,,,0.03,,2013-03-25 18:22:00,
2013-03-25 13:33:00,32.0,29.0,29.94,North,355,9.0,19.0,90,0.02,,,0.04,,2013-03-25 18:33:00,
2013-03-25 13:42:00,32.0,29.0,29.94,North,355,9.0,19.0,90,0.02,,,0.04,,2013-03-25 18:42:00,
2013-03-25 13:52:00,32.0,29.0,29.94,NNW,335,12.0,20.0,89,0.02,,,0.04,,2013-03-25 18:52:00,
2013-03-25 14:03:00,32.0,29.0,29.94,NW,311,9.0,18.0,89,0.03,,,0.05,,2013-03-25 19:03:00,
2013-03-25 14:12:00,32.0,29.0,29.94,NW,311,9.0,18.0,89,0.03,,,0.05,,2013-03-25 19:12:00,
2013-03-25 14:23:00,32.0,29.0,29.95,North,360,10.0,22.0,88,0.03,,,0.06,,2013-03-25 19:23:00,
2013-03-25 14:33:00,33.0,30.0,29.95,NW,318,9.0,20.0,88,0.02,,,0.06,,2013-03-25 19:33:00,
2013-03-25 14:42:00,33.0,30.0,29.95,NW,318,9.0,20.0,88,0.02,,,0.06,,2013-03-25 19:42:00,
2013-03-25 14:52:00,33.0,30.0,29.95,NW,319,11.0,18.0,87,0.03,,,0.07,,2013-03-25 19:52:00,
2013-03-25 15:02:00,33.0,30.0,29.96,NW,317,9.0,16.0,87,0.02,,,0.07,,2013-03-25 20:02:00,
2013-03-25 15:12:00,33.0,30.0,29.96,NW,317,9.0,16.0,87,0.02,,,0.07,,2013-03-25 20:12:00,
2013-03-25 15:22:00,33.0,30.0,29.96,NNW,344,8.0,19.0,87,0.01,,,0.07,,2013-03-25 20:22:00,
2013-03-25 15:32:00,33.0,29.0,29.97,NW,310,10.0,17.0,85,0.02,,,0.07,,2013-03-25 20:32:00,
2013-03-25 15:42:00,33.0,29.0,29.97,NW,310,10.0,17.0,85,0.02,,,0.07,,2013-03-25 20:42:00,
2013-03-25 15:52:00,34.0,30.0,29.97,NNW,333,10.0,20.0,84,0.01,,,0.07,,2013-03-25 20:52:00,
2013-03-25 16:02:00,34.0,29.0,29.98,NW,308,11.0,16.0,83,0.01,,,0.07,,2013-03-25 21:02:00,
2013-03-25 16:12:00,34.0,29.0,29.98,NW,308,11.0,16.0,83,0.01,,,0.07,,2013-03-25 21:12:00,
2013-03-25 16:22:00,34.0,29.0,29.99,NW,317,11.0,18.0,82,0.01,,,0.07,,2013-03-25 21:22:00,
2013-03-25 16:33:00,34.0,29.0,29.99,NW,325,10.0,16.0,82,0.00,,,0.07,,2013-03-25 21:33:00,
2013-03-25 16:42:00,34.0,29.0,29.99,NW,325,10.0,16.0,82,0.00,,,0.07,,2013-03-25 21:42:00,
2013-03-25 16:52:00,34.0,29.0,30.00,NW,323,9.0,17.0,81,0.01,,,0.08,,2013-03-25 21:52:00,
2013-03-25 17:03:00,34.0,29.0,30.01,NNW,346,10.0,17.0,83,0.01,,,0.08,,2013-03-25 22:03:00,
2013-03-25 17:12:00,34.0,29.0,30.01,NNW,346,10.0,17.0,83,0.01,,,0.08,,2013-03-25 22:12:00,
2013-03-25 17:23:00,33.0,29.0,30.01,NNW,346,8.0,17.0,85,0.01,,,0.08,,2013-03-25 22:23:00,
2013-03-25 17:33:00,33.0,29.0,30.02,NW,321,7.0,14.0,85,0.01,,,0.08,,2013-03-25 22:33:00,
2013-03-25 17:42:00,33.0,29.0,30.02,NW,321,7.0,14.0,85,0.01,,,0.08,,2013-03-25 22:42:00,
2013-03-25 17:52:00,34.0,30.0,30.02,NW,322,7.0,15.0,84,0.00,,,0.08,,2013-03-25 22:52:00,
2013-03-25 18:03:00,33.0,29.0,30.03,NNW,327,8.0,16.0,85,0.00,,,0.08,,2013-03-25 23:03:00,
2013-03-25 18:12:00,33.0,29.0,30.03,NNW,327,8.0,16.0,85,0.00,,,0.08,,2013-03-25 23:12:00,
2013-03-25 18:23:00,33.0,30.0,30.04,NNW,340,8.0,19.0,87,0.00,,,0.08,,2013-03-25 23:23:00,
2013-03-25 18:32:00,33.0,30.0,30.05,NNW,346,7.0,12.0,88,0.00,,,0.08,,2013-03-25 23:32:00,
2013-03-25 18:42:00,33.0,30.0,30.05,NNW,346,7.0,12.0,88,0.00,,,0.08,,2013-03-25 23:42:00,
2013-03-25 18:52:00,33.0,30.0,30.06,NW,321,6.0,11.0,87,0.00,,,0.08,,2013-03-25 23:52:00,
2013-03-25 19:02:00,33.0,30.0,30.07,NNW,332,8.0,15.0,88,0.00,,,0.08,,2013-03-26 00:02:00,
2013-03-25 19:12:00,33.0,30.0,30.07,NNW,332,8.0,15.0,88,0.00,,,0.08,,2013-03-26 00:12:00,
2013-03-25 19:22:00,32.0,29.0,30.08,North,5,5.0,11.0,90,0.00,,,0.08,,2013-03-26 00:22:00,
2013-03-25 19:32:00,32.0,30.0,30.08,NW,326,5.0,11.0,92,0.00,,,0.08,,2013-03-26 00:32:00,
2013-03-25 19:42:00,32.0,30.0,30.08,NW,326,5.0,11.0,92,0.00,,,0.08,,2013-03-26 00:42:00,
2013-03-25 19:52:00,32.0,30.0,30.09,NNW,331,3.0,9.0,93,0.00,,,0.08,,2013-03-26 00:52:00,
2013-03-25 20:02:00,32.0,30.0,30.09,NW,315,3.0,6.0,93,0.00,,,0.08,,2013-03-26 01:02:00,
2013-03-25 20:12:00,32.0,30.0,30.09,NW,315,3.0,6.0,93,0.00,,,0.08,,2013-03-26 01:12:00,
2013-03-25 20:22:00,32.0,30.0,30.10,NNW,331,3.0,7.0,92,0.00,,,0.08,,2013-03-26 01:22:00,
2013-03-25 20:32:00,32.0,30.0,30.10,NNW,331,3.0,7.0,92,0.00,,,0.08,,2013-03-26 01:32:00,
2013-03-25 20:42:00,32.0,30.0,30.10,NNW,331,3.0,7.0,92,0.00,,,0.08,,2013-03-26 01:42:00,
2013-03-25 20:52:00,32.0,29.0,30.11,NW,315,5.0,13.0,90,0.00,,,0.08,,2013-03-26 01:52:00,
2013-03-25 21:02:00,32.0,29.0,30.11,NNW,341,4.0,8.0,89,0.00,,,0.08,,2013-03-26 02:02:00,
2013-03-25 21:12:00,32.0,29.0,30.11,NNW,341,4.0,8.0,89,0.00,,,0.08,,2013-03-26 02:12:00,
2013-03-25 21:22:00,32.0,29.0,30.11,NNW,341,4.0,8.0,89,0.00,,,0.08,,2013-03-26 02:22:00,
2013-03-25 21:32:00,32.0,29.0,30.12,North,355,3.0,7.0,88,0.00,,,0.08,,2013-03-26 02:32:00,
2013-03-25 21:42:00,32.0,29.0,30.12,North,355,3.0,7.0,88,0.00,,,0.08,,2013-03-26 02:42:00,
2013-03-25 21:52:00,32.0,29.0,30.13,NW,317,5.0,10.0,87,0.00,,,0.08,,2013-03-26 02:52:00,
2013-03-25 22:02:00,32.0,28.0,30.13,NW,323,6.0,11.0,86,0.00,,,0.08,,2013-03-26 03:02:00,
2013-03-25 22:12:00,32.0,28.0,30.13,NW,323,6.0,11.0,86,0.00,,,0.08,,2013-03-26 03:12:00,
2013-03-25 22:22:00,32.0,28.0,30.14,NNW,333,5.0,10.0,86,0.00,,,0.08,,2013-03-26 03:22:00,
2013-03-25 22:33:00,32.0,28.0,30.14,NNW,341,5.0,9.0,86,0.00,,,0.08,,2013-03-26 03:33:00,
2013-03-25 22:42:00,32.0,28.0,30.14,NNW,341,5.0,9.0,86,0.00,,,0.08,,2013-03-26 03:42:00,
2013-03-25 22:52:00,32.0,29.0,30.14,North,5,4.0,10.0,87,0.00,,,0.08,,2013-03-26 03:52:00,
2013-03-25 23:03:00,32.0,29.0,30.14,NNW,339,4.0,8.0,87,0.00,,,0.08,,2013-03-26 04:03:00,
2013-03-25 23:12:00,32.0,29.0,30.14,NNW,339,4.0,8.0,87,0.00,,,0.08,,2013-03-26 04:12:00,
2013-03-25 23:23:00,32.0,29.0,30.14,North,355,4.0,9.0,87,0.00,,,0.08,,2013-03-26 04:23:00,
2013-03-25 23:32:00,32.0,28.0,30.14,NW,319,4.0,8.0,86,0.00,,,0.08,,2013-03-26 04:32:00,
2013-03-25 23:43:00,32.0,28.0,30.14,NW,319,4.0,8.0,86,0.00,,,0.08,,2013-03-26 04:43:00,
2013-03-25 23:52:00,32.0,28.0,30.15,North,350,3.0,6.0,86,0.00,,,0.08,,2013-03-26 04:52:00,